SCP
0 0 0 0 0 0 0 0 0 0 0 0 0 0 0 0 0 0 0 0 0 0 0 0 0 0 0 0 0 0 0 0 0 0 0 0 0 0 0 0 0 0 0
0 0 0 0 0 0 0 0 0 0 0 0 0 0 0 0 0 0 0 0 0 0 0 0 0 0 0 0 0 0 0 0 0 0 0 0 0 0 0 0 0 0 0
0 0 0 0 0 0 0 0 0 0 0 0 0 0 0 0 0 0 0 0 0 0 0 0 0 0 0 0 0 0 0 0 0 0 0 0 0 0 0 0 0 0 0
0 0 0 0 0 0 0 0 0 0 0 0 0 0 0 0 0 0 0 0 0 0 0 0 0 0 0 0 0 0 0 0 0 0 0 0 0 0 0 0 0 0 0
0 0 0 0 0 0 0 0 0 0 0 0 0 0 0 0 0 0 0 0 0 0 0 0 0 0 0 0 0 0 0 0 0 0 0 0 0 0 0 0 0 0 0
0 0 0 0 0 0 0 0 0 0 0 0 0 0 0 0 0 0 0 0 0 0 0 0 0 0 0 0 0 0 0 0 0 0 0 0 0 0 0 0 0 0 0
0 0 0 0 0 0 0 0 0 0 0 0 0 0 0 0 0 0 0 0 0 0 0 0 0 0 0 0 0 0 0 0 0 0 0 0 0 0 0 0 0 0 0
0 0 0 0 0 0 0 0 0 0 0 0 0 0 0 0 0 0 0 0 0 0 0 0 0 0 0 0 0 0 0 0 0 0 0 0 0 0 0 0 0 0 0
0 0 0 0 0 0 0 0 0 0 0 0 0 0 0 0 0 0 0 0 0 0 0 0 0 0 0 0 0 0 0 0 0 0 0 0 0 0 0 0 0 0 0
0 0 0 0 0 0 0 0 0 0 0 0 0 0 0 0 0 0 0 0 0 0 0 0 0 0 0 0 0 0 0 0 0 0 0 0 0 0 0 0 0 0 0
0 0 0 0 0 0 0 0 0 0 0 0 0 0 0 0 0 0 0 0 0 0 0 0 0 0 0 0 0 0 0 0 0 0 0 0 0 0 0 0 0 0 0
0 0 0 0 0 0 0 0 0 0 0 0 0 0 0 0 0 0 0 0 0 0 0 0 0 0 0 0 0 0 0 0 0 0 0 0 0 0 0 0 0 0 0
0 0 0 0 0 0 0 0 0 0 0 0 0 0 0 0 0 0 0 0 0 0 0 0 0 0 0 0 0 0 0 0 0 0 0 0 0 0 0 0 0 0 0
0 0 0 0 0 0 0 0 0 0 0 0 0 0 0 0 0 0 0 0 0 0 0 0 0 0 0 0 0 0 0 0 0 0 0 0 0 0 0 0 0 0 0
0 0 0 0 0 0 0 0 0 0 0 0 0 0 0 0 0 0 0 0 0 0 0 0 0 0 0 0 0 0 0 0 0 0 0 0 0 0 0 0 0 0 0
0 0 0 0 0 0 0 0 0 0 0 0 0 0 0 0 0 0 0 0 0 0 0 0 0 0 0 0 0 0 0 0 0 0 0 0 0 0 0 0 0 0 0
0 0 0 0 0 0 0 0 0 0 0 0 0 0 0 0 0 0 0 0 0 0 0 0 0 0 0 0 0 0 0 0 0 0 0 0 0 0 0 0 0 0 0
0 0 0 0 0 0 0 0 0 0 0 0 0 0 0 0 0 0 0 0 0 0 0 0 0 0 0 0 0 0 0 0 0 0 0 0 0 0 0 0 0 0 0
0 0 0 0 0 0 0 0 0 0 0 0 0 0 0 0 0 0 0 0 0 0 0 0 0 0 0 0 0 0 0 0 0 0 0 0 0 0 0 0 0 0 0
0 0 0 0 0 0 0 0 0 0 0 0 0 0 0 0 0 0 0 0 0 0 0 0 0 0 0 0 0 0 0 0 0 0 0 0 0 0 0 0 0 0 0
0 0 0 0 0 0 0 0 0 0 0 0 0 0 0 0 0 0 0 0 0 0 0 0 0 0 0 0 0 0 0 0 0 0 0 0 0 0 0 0 0 0 0
0 0 0 0 0 0 0 0 0 0 0 0 0 0 0 0 0 0 0 0 0 0 0 0 0 0 0 0 0 0 0 0 0 0 0 0 0 0 0 0 0 0 0
0 0 0 0 0 0 0 0 0 0 0 0 0 0 0 0 0 0 0 0 0 0 0 0 0 0 0 0 0 0 0 0 0 0 0 0 0 0 0 0 0 0 0
0 0 0 0 0 0 0 0 0 0 0 0 0 0 0 0 0 0 0 0 0 0 0 0 0 0 0 0 0 0 0 0 0 0 0 0 0 0 0 0 0 0 0
0 0 0 0 0 0 0 0 0 0 0 0 0 0 0 0 0 0 0 0 0 0 0 0 0 0 0 0 0 0 0 0 0 0 0 0 0 0 0 0 0 0 0
0 0 0 0 0 0 0 0 0 0 0 0 0 0 0 0 0 0 0 0 0 0 0 0 0 0 0 0 0 0 0 0 0 0 0 0 0 0 0 0 0 0 0
Wind_Speed
4 4 4 4 5 4 4 4 5 6 6 6 6 6 6 6 6 6 5 10 10 10 10 10 10 10 10 10 10 10 9 8 7 7 7 6 6 6 6 6 6 6 7
4 4 4 4 4 4 4 4 5 5 5 5 6 7 6 6 6 6 5 6 10 11 11 11 10 10 10 10 10 10 10 9 8 8 7 7 6 6 6 6 6 7 6
4 4 4 4 4 4 4 4 5 4 4 4 5 6 5 6 5 6 6 5 6 9 11 11 11 11 10 10 9 10 10 10 9 9 8 7 6 6 6 6 6 6 6
4 4 3 3 4 3 3 3 3 3 4 4 4 4 4 4 5 6 5 5 5 5 8 11 11 11 10 10 10 10 10 10 9 8 8 7 6 6 5 5 5 5 5
4 4 3 3 3 3 3 3 3 3 3 3 3 3 3 3 4 4 5 6 6 5 5 6 8 10 10 10 9 10 10 9 9 8 7 7 7 6 6 5 5 5 5
4 4 3 3 3 2 2 3 3 2 3 2 2 2 2 2 3 4 4 4 4 6 5 5 4 5 8 9 9 9 9 9 8 7 7 6 6 6 5 5 5 5 5
4 4 2 3 2 2 3 3 2 2 2 2 1 1 2 2 3 3 3 3 4 4 4 4 4 4 3 6 8 8 9 9 8 8 7 6 5 5 5 5 5 5 5
3 3 3 2 2 2 2 2 2 1 1 2 2 1 0 2 2 2 2 3 4 3 4 4 4 4 4 3 7 8 9 9 9 8 7 6 6 6 6 5 5 5 5
2 2 2 2 2 2 1 1 1 1 1 2 3 3 2 1 1 1 3 2 3 3 3 4 4 5 4 4 4 7 8 8 8 8 8 7 7 6 6 6 5 5 5
2 2 1 1 1 1 1 1 1 1 1 1 1 2 3 2 2 0 1 2 3 3 3 3 3 4 4 3 5 7 7 8 7 8 8 7 7 6 6 6 5 5 5
1 1 1 1 1 1 1 1 1 2 1 2 2 1 1 1 3 2 1 1 1 2 2 3 2 3 3 3 3 6 7 7 7 8 7 7 6 6 6 6 6 5 5
0 1 1 1 1 1 1 1 1 2 2 2 2 2 2 2 1 2 2 1 1 1 2 2 2 2 2 3 4 7 6 7 7 7 7 7 7 6 6 5 5 5 5
0 1 1 1 1 1 1 1 1 2 2 2 2 2 2 3 2 2 2 1 1 1 0 0 1 1 2 2 3 4 4 5 6 7 6 7 7 6 7 5 5 5 5
1 1 1 1 1 1 1 1 2 2 2 2 2 2 2 2 2 2 2 2 2 1 1 0 1 1 1 1 3 2 2 4 5 5 5 6 6 6 6 5 5 5 5
1 1 1 2 1 1 2 1 1 2 2 3 2 2 1 1 2 2 2 3 3 3 1 0 1 1 1 1 2 1 1 3 3 4 4 4 5 5 5 5 5 5 5
1 2 2 2 1 1 1 1 2 2 2 2 2 2 1 1 1 1 2 3 3 3 2 1 1 1 1 1 1 2 2 1 1 2 3 3 3 3 4 4 4 4 4
2 2 2 2 2 2 2 2 2 2 2 2 1 2 1 1 1 1 1 2 2 2 2 2 1 1 1 2 1 2 1 1 1 2 2 2 2 2 3 3 3 3 3
2 2 2 2 2 2 2 2 2 2 2 2 2 2 2 1 2 2 2 2 2 2 2 2 2 1 2 2 2 2 2 1 1 2 1 1 1 1 1 1 2 2 3
2 2 2 1 1 2 2 2 3 2 2 2 2 2 2 2 2 2 3 2 2 2 2 2 2 1 2 2 2 2 2 2 2 2 2 3 1 1 1 0 0 1 2
2 2 1 1 1 2 2 2 3 3 3 2 3 3 3 3 3 3 3 3 2 2 2 2 2 2 2 2 2 2 2 2 2 1 1 2 2 3 2 2 2 1 1
2 2 2 2 2 2 2 3 3 3 3 3 3 3 3 3 4 4 3 3 2 3 2 2 2 2 2 2 2 2 3 2 2 2 2 2 2 2 3 4 4 3 2
2 2 2 2 2 2 2 4 5 4 4 4 4 4 3 3 3 4 4 5 4 4 3 3 3 3 4 3 2 3 3 2 2 1 2 2 2 2 2 2 3 4 4
2 2 2 3 3 2 1 3 5 5 4 4 4 4 3 3 4 4 4 5 6 6 6 5 5 4 4 4 4 4 3 3 3 1 2 3 2 3 2 2 3 4 4
2 2 2 3 3 2 2 3 5 6 5 4 5 5 4 4 3 5 4 4 4 4 5 5 5 5 4 4 4 4 4 4 3 2 2 3 2 3 2 2 4 5 5
2 2 3 3 4 3 2 3 5 4 4 5 5 4 5 5 3 5 5 5 4 4 4 5 5 5 4 3 3 3 3 3 3 2 2 3 3 2 3 3 3 5 6
3 3 3 3 4 4 2 3 6 4 4 4 4 4 4 5 5 5 5 5 5 4 3 3 4 4 4 3 4 5 4 4 3 2 2 3 3 2 2 2 2 3 4
Wind_Direction
65 66 64 59 58 60 64 62 64 60 58 55 53 53 54 51 51 53 60 50 44 44 46 46 44 43 42 41 40 39 37 45 47 51 52 55 60 68 74 69 69 66 61
61 60 66 63 60 56 58 63 66 62 59 57 55 55 52 51 50 53 56 63 56 48 44 42 39 38 41 42 42 41 39 43 51 52 52 54 60 67 71 70 69 64 60
57 62 59 65 63 62 64 63 66 60 61 62 60 56 55 48 48 50 48 46 59 60 50 43 39 36 38 40 42 43 43 47 52 51 51 53 59 63 65 67 68 67 64
59 62 57 59 60 57 59 66 60 63 59 51 51 51 57 55 46 46 48 50 44 48 59 48 39 37 40 39 43 46 45 48 49 49 50 51 56 60 63 66 69 69 68
58 69 62 60 62 58 56 60 57 50 57 52 49 49 46 49 45 40 44 45 48 40 46 60 47 40 39 39 42 45 43 43 44 44 48 52 55 57 62 65 67 65 62
58 60 64 60 55 56 58 61 65 56 52 46 45 53 52 54 55 43 38 41 38 38 33 34 37 55 47 39 39 40 39 40 41 42 45 52 56 55 62 68 67 63 64
63 65 55 64 54 54 53 63 63 67 58 37 39 61 91 72 60 54 35 28 38 33 26 34 25 24 51 59 45 35 35 37 36 38 40 46 50 56 61 68 73 71 67
69 67 61 58 62 63 58 61 61 32 45 6 338 323 78 123 70 48 40 28 27 29 23 25 30 35 30 41 53 38 33 34 35 38 38 45 51 57 59 63 72 78 75
65 64 59 59 59 60 61 39 35 9 5 14 358 338 325 14 13 70 34 34 29 17 15 18 23 29 37 41 46 49 33 28 31 33 37 43 48 56 57 63 73 81 79
50 49 48 53 59 37 35 11 23 357 335 343 11 359 350 349 301 346 59 37 25 18 13 12 15 26 35 35 49 40 29 20 24 28 33 37 40 51 57 61 69 73 72
36 24 17 39 20 8 5 4 356 333 328 330 335 339 353 319 293 297 305 343 20 29 16 9 16 14 26 33 31 43 32 24 26 27 29 29 33 46 55 62 66 71 72
10 21 352 338 328 333 331 331 329 315 320 326 313 303 296 296 302 309 295 297 341 13 19 14 8 21 20 29 42 39 29 25 27 27 27 27 31 42 49 59 65 69 73
278 317 306 303 313 318 321 310 304 307 302 303 300 308 312 309 302 300 293 293 306 301 303 347 21 19 18 17 46 33 40 27 26 26 29 31 34 39 44 50 57 60 65
297 301 300 305 313 313 306 311 302 310 310 299 297 303 302 311 305 291 294 287 276 276 268 341 38 7 11 14 38 328 51 42 26 26 30 31 35 38 40 43 48 51 58
292 289 284 289 289 295 297 295 294 304 311 309 299 292 296 315 299 295 293 283 286 280 283 329 326 355 349 2 15 321 350 56 30 21 32 31 35 41 39 39 44 46 49
282 270 265 271 273 274 277 283 294 310 305 318 309 296 296 298 303 293 291 286 287 283 287 321 309 311 351 326 345 321 351 75 64 32 38 42 42 38 38 43 43 45 48
269 264 257 259 265 267 264 261 275 289 300 311 305 295 286 294 299 296 294 279 281 284 273 292 300 318 298 306 318 314 309 282 127 97 61 57 52 48 41 39 40 44 50
266 263 261 261 270 278 277 275 276 285 292 303 313 306 301 295 281 289 283 264 259 264 265 279 287 290 292 300 298 289 286 287 264 120 123 124 99 80 38 33 43 44 57
263 255 257 266 278 285 281 281 280 280 281 286 291 289 287 289 277 272 267 254 249 249 251 247 262 267 275 280 287 274 261 266 258 164 171 184 187 211 259 267 72 50 67
268 269 273 277 281 283 280 279 284 279 280 284 284 281 284 284 281 279 262 253 246 244 243 238 243 248 260 272 265 266 269 259 252 226 208 208 195 207 220 219 205 184 160
267 270 269 271 277 279 294 292 279 279 281 283 285 287 295 312 314 306 291 266 244 242 238 242 245 248 252 260 270 279 274 273 252 232 241 226 214 218 207 203 200 201 210
268 267 264 266 272 284 332 314 299 277 281 280 279 279 277 266 276 279 287 292 284 264 255 244 248 256 262 261 259 264 273 272 258 213 248 249 233 234 238 227 177 190 215
268 273 268 269 270 278 310 299 291 283 277 280 279 276 278 277 275 268 245 249 253 267 276 267 259 263 265 259 251 249 251 262 275 279 267 253 235 239 232 210 178 202 219
259 267 278 276 277 280 287 283 282 266 269 270 273 276 275 278 280 290 270 255 256 251 257 260 263 268 270 266 249 250 248 255 264 247 243 258 255 256 253 227 181 204 221
263 267 275 280 278 274 279 277 275 265 264 267 269 272 278 281 304 297 272 260 259 255 236 256 282 294 301 288 261 238 226 228 246 248 231 254 260 267 260 238 192 197 219
263 268 272 278 280 284 293 280 274 263 266 268 266 264 277 292 304 289 263 262 262 267 269 247 240 243 248 222 214 229 231 232 242 247 207 246 259 262 252 225 222 211 216